This demonstration page uses our WeatherBlox Daily Observations layout. Learn more.

Left ArrowRight Arrow

38.20091, -84.87328

Hourly Observations for November 26, 2022

Temp ( °F °C ) Dew Point ( °F °C ) Humidity (%) Winds ( mph kmh ) Pressure ( in mb ) Visibility ( mi km ) Precip ( " mm )
12:53 am 00:53 Clear 31 -0.6 27 -2.8 85 85 Calm 30.22 1023 7 11 0.00 0.00
1:53 am 01:53 Clear 30 -1.1 28 -2.2 92 92 Calm 30.20 1023 8 13 0.00 0.00
2:53 am 02:53 Clear 29 -1.7 26 -3.3 89 89 Calm 30.22 1024 7 11 0.00 0.00
3:53 am 03:53 Clear 27 -2.8 24 -4.4 89 89 Calm 30.22 1023 8 13 0.00 0.00
4:53 am 04:53 Clear 27 -2.8 25 -3.9 92 92 Calm 30.21 1023 9 14 0.00 0.00
5:53 am 05:53 Clear with Mist and Fog 25 -3.9 22 -5.6 88 88 Calm 30.21 1023 6 10 0.00 0.00
6:53 am 06:53 Clear 26 -3.3 23 -5 88 88 Calm 30.22 1023 7 11 0.00 0.00
7:19 am 07:19 Partly Cloudy 25 -3.9 23 -5 92 92 Calm 30.26 1025 7 11 0.00 0.00
7:28 am 07:28 Mostly Cloudy 26 -3.3 23 -5 88 88 Calm 30.25 1024 9 14 0.00 0.00
7:53 am 07:53 Mostly Cloudy 26 -3.3 23 -5 88 88 Calm 30.22 1023 8 13 0.00 0.00
8:08 am 08:08 Partly Cloudy with Mist and Fog 25 -3.9 22 -5.6 88 88 Calm 30.26 1025 6 10 0.00 0.00
8:53 am 08:53 Sunny 31 -0.6 29 -1.7 92 92 Calm 30.21 1023 7 11 0.00 0.00
9:53 am 09:53 Hazy 40 4.4 35 1.7 83 83 E 3 6 30.19 1023 6 10 0.00 0.00
10:53 am 10:53 Sunny 47 8.3 37 2.8 68 68 Calm 30.18 1022 9 14 0.00 0.00
11:53 am 11:53 Sunny 50 10 39 3.9 66 66 SE 3 6 30.13 1020 10 16 0.00 0.00
12:53 pm 12:53 Sunny 55 12.8 39 3.9 55 55 ESE 7 11 30.09 1019 10 16 0.00 0.00
1:53 pm 13:53 Sunny 58 14.4 35 1.7 42 42 SE 6 9 30.06 1018 10 16 0.00 0.00
2:53 pm 14:53 Sunny 58 14.4 33 0.6 39 39 E 7 11 30.02 1017 10 16 0.00 0.00
3:53 pm 15:53 Sunny 57 13.9 32 0 38 38 SE 5 7 30.02 1017 10 16 0.00 0.00
4:53 pm 16:53 Sunny 54 12.2 33 0.6 45 45 ESE 3 6 30.01 1016 10 16 0.00 0.00
5:53 pm 17:53 Clear 51 10.6 34 1.1 52 52 E 3 6 29.99 1016 10 16 0.00 0.00
6:53 pm 18:53 Clear 50 10 35 1.7 56 56 SSE 5 7 29.97 1015 10 16 0.00 0.00
7:53 pm 19:53 Clear 51 10.6 35 1.7 54 54 E 6 9 29.94 1014 10 16 0.00 0.00
8:53 pm 20:53 Cloudy 52 11.1 34 1.1 50 50 SSE 5 7 29.92 1013 10 16 0.00 0.00
9:53 pm 21:53 Cloudy with Light Rain 50 10 38 3.3 63 63 Calm 29.90 1013 10 16 0.01 0.13
10:53 pm 22:53 Cloudy with Rain 49 9.4 43 6.1 80 80 SE 6 9 29.86 1011 7 11 0.05 1.27
11:53 pm 23:53 Cloudy with Light Rain 50 10 46 7.8 86 86 ESE 6 9 29.80 1009 8 13 0.05 1.27

Powered by AerisWeather